Location: Newark
(0.5300°S, 127.4800°E)
Time: 20:36:10
(UTC+00:00)

Vanguard 3 - Pass Details

Date: 25 September 2019
Orbit: 508 x 3262 km, 33.3° (Epoch: 21 October)

Event Time Altitude Azimuth Distance (km) Brightness Sun altitude
Rises 07:57:42 0° 291° (WNW) 6,714 13.0 21.1°
Reaches altitude 10° 08:03:07 10° 285° (WNW) 5,333 13.1 19.7°
Maximum altitude 08:16:11 40° 222° (SW) 2,458 10.3 16.4°
Drops below altitude 10° 08:24:01 10° 154° (SSE) 3,216 10.0 14.5°
Sets 08:26:29 0° 145° (SE) 3,885 10.3 13.9°
